TimeCST,TemperatureF,Dew PointF,Humidity,Sea Level PressureIn,VisibilityMPH,Wind Direction,Wind SpeedMPH,Gust SpeedMPH,PrecipitationIn,Events,Conditions,WindDirDegrees,DateUTC
6:50 AM,32.0,30.2,93,30.00,10.0,South,9.2,-,N/A,,Partly Cloudy,180,2013-03-03 12:50:00
7:50 AM,33.8,32.0,93,30.00,10.0,South,9.2,-,N/A,,Scattered Clouds,170,2013-03-03 13:50:00
8:50 AM,41.0,33.8,76,29.98,10.0,South,13.8,-,N/A,,Scattered Clouds,180,2013-03-03 14:50:00
10:55 AM,50.0,39.2,66,29.92,10.0,SSE,18.4,-,N/A,,Mostly Cloudy,160,2013-03-03 16:55:00
11:50 AM,57.2,39.2,51,29.88,10.0,SSE,16.1,-,N/A,,Mostly Cloudy,160,2013-03-03 17:50:00
1:50 PM,66.2,39.2,37,29.78,10.0,South,19.6,-,N/A,,Mostly Cloudy,180,2013-03-03 19:50:00
2:50 PM,66.2,41.0,40,29.73,10.0,South,18.4,27.6,N/A,,Mostly Cloudy,180,2013-03-03 20:50:00
3:50 PM,66.2,39.2,37,29.72,10.0,South,18.4,27.6,N/A,,Mostly Cloudy,190,2013-03-03 21:50:00
4:50 PM,68.0,39.2,35,29.70,10.0,South,18.4,27.6,N/A,,Mostly Cloudy,190,2013-03-03 22:50:00
5:50 PM,62.6,41.0,45,29.67,10.0,South,13.8,21.9,N/A,,Mostly Cloudy,180,2013-03-03 23:50:00
6:50 PM,59.0,39.2,48,29.65,10.0,SE,16.1,-,N/A,,Mostly Cloudy,140,2013-03-04 00:50:00
7:50 PM,57.2,37.4,48,29.64,10.0,SE,13.8,-,N/A,,Mostly Cloudy,130,2013-03-04 01:50:00
8:15 PM,55.4,37.4,51,29.64,10.0,SE,13.8,-,N/A,,Clear,140,2013-03-04 02:15:00
8:35 PM,53.6,37.4,54,29.63,10.0,SSE,13.8,-,N/A,,Clear,150,2013-03-04 02:35:00
8:50 PM,53.6,37.4,54,29.62,10.0,SE,17.3,-,N/A,,Mostly Cloudy,140,2013-03-04 02:50:00
8:55 PM,53.6,37.4,54,29.62,10.0,SSE,13.8,-,N/A,,Clear,150,2013-03-04 02:55:00
9:15 PM,53.6,35.6,51,29.61,10.0,SSE,13.8,-,N/A,,Clear,150,2013-03-04 03:15:00
9:35 PM,53.6,35.6,51,29.61,10.0,SSE,10.4,-,N/A,,Clear,150,2013-03-04 03:35:00
9:55 PM,51.8,35.6,54,29.61,10.0,SSE,8.1,-,N/A,,Clear,160,2013-03-04 03:55:00
10:15 PM,50.0,35.6,58,29.60,10.0,SSE,5.8,-,N/A,,Clear,150,2013-03-04 04:15:00
10:35 PM,48.2,35.6,62,29.60,10.0,SE,8.1,-,N/A,,Clear,140,2013-03-04 04:35:00
10:55 PM,46.4,35.6,66,29.59,10.0,SSE,9.2,-,N/A,,Clear,150,2013-03-04 04:55:00
11:15 PM,46.4,35.6,66,29.57,10.0,SSE,8.1,-,N/A,,Clear,150,2013-03-04 05:15:00
11:35 PM,44.6,35.6,71,29.56,10.0,SE,6.9,-,N/A,,Clear,140,2013-03-04 05:35:00
11:55 PM,44.6,35.6,71,29.55,10.0,SE,9.2,-,N/A,,Clear,140,2013-03-04 05:55:00